Back to catalog

THOR ABLESTAR DEB

AliveLEO
NORAD 325·DEBRIS·🇺🇸 United States

Launched Jun 29, 1961 from Cape Canaveral Space Force Station

Loading…

Next Passes (next 24 hours)

TLE

FreshSource: Space-Track

Epoch: Sep 13, 2026, 08:08 UTC

1 00325U 61015DB  26256.33950798  .00000682  00000-0  33134-3 0  9991
2 00325  66.9123 237.6067 0059828 317.5736  42.0742 14.23247520345702

Track THOR ABLESTAR DEB in real time with AllMySat

Download on the App Store